Regional Weather Roundup
Issued by NWS

Home | Current Version | Previous Version | Text Only | Print | Product List | Glossary On
Versions: 1 2 3 4 5 6 7 8 9 10 11 12 13 14 15 16 17 18 19 20 21 22 23 24 25 26 27 28 29 30 31 32 33 34 35 36 37 38 39 40 41 42 43 44 45 46 47 48 49 50
929
ASUS43 KMPX 270410
RWRMN
WEATHER ROUNDUP FOR MINNESOTA
NATIONAL WEATHER SERVICE TWIN CITIES/CHANHASSEN MN
1100 PM CDT MON SEP 26 2016


NOTE: "FAIR" INDICATES FEW OR NO CLOUDS BELOW 12,000 FEET WITH NO
SIGNIFICANT WEATHER AND/OR OBSTRUCTIONS TO VISIBILITY. N/A MEANS
CURRENT SKY AND/OR WEATHER CONDITIONS ARE NOT AVAILABLE.

MNZ060>063-068>070-270500-
   Twin Cities Metro

CITY           SKY/WX    TMP DP  RH WIND       PRES   REMARKS
TWIN CITIES    CLEAR     57  36  45 W12       29.87S
ST PAUL        CLEAR     57  37  47 W14       29.87S
CRYSTAL        CLEAR     54  36  50 W10       29.86S
BLAINE         CLEAR     55  39  54 W9        29.86S
LAKEVILLE      CLEAR     52  36  54 W8        29.89S
EDEN PRAIRIE   CLEAR     56  35  45 W9        29.88R
LAKEVILLE      CLEAR     52  36  54 W8        29.89S
SOUTH ST PAUL  CLEAR     57  35  44 W8        29.86F
LAKE ELMO      FAIR      55  39  54 W12G17    29.86F
$$
MNZ001>005-007-008-013>017-022>024-027-028-270500-
   Northwest Minnesota

CITY           SKY/WX    TMP DP  RH WIND       PRES   REMARKS
BEMIDJI        CLOUDY    49  40  71 NW15G21   29.85F
HALLOCK        CLEAR     46  45  93 NW7       29.91S
ROSEAU         PTCLDY    52  45  76 NW15      29.84F
WARROAD        CLOUDY    52  45  76 NW15G24   29.83S
THIEF RVR FALL CLEAR     48  42  80 NW10      29.91S
CROOKSTON      CLEAR     43  41  93 NW6       29.94R
FOSSTON        CLEAR     45  39  81 W7        29.90F
DETROIT LAKES  CLEAR     46  39  76 NW8       29.93S
MOORHEAD       CLEAR     54  30  40 NW14      29.95S
PARK RAPIDS    CLEAR     50  40  68 NW13      29.88F
MAHNOMEN       FAIR      43  40  90 NW6       29.92R
$$
MNZ006-009>011-018-025>026-270500-
   North Central Minnesota

CITY           SKY/WX    TMP DP  RH WIND       PRES   REMARKS
BAUDETTE       CLOUDY    50  45  83 NW21G29   29.78F
FLAG ISLAND    CLOUDY    52  46  82 NW22G32   29.77S
INTL FALLS     LGT RAIN  49  47  93 W12G24    29.70F
WASKISH        CLOUDY    52  45  76 NW15G30   29.81S
BIG FORK       CLOUDY    52  43  71 NW8G16    29.76F
LONGVILLE      CLEAR     50  41  71 NW10G21   29.82F
GRAND RAPIDS   CLOUDY    52  42  69 NW17G26   29.79S
CRANE LAKE     DRIZZLE   48  46  93 NW6G22    29.67F
ORR            LGT RAIN  48  45  87 W17       29.67F
COOK           RAIN      48  46  93 W20G29    29.70S
WALKER         FAIR      47  40  75 NW13G18   29.84F
$$
MNZ012-019>021-037-270500-
   Northeast Minnesota

CITY           SKY/WX    TMP DP  RH WIND       PRES   REMARKS
DULUTH         CLOUDY    52  44  74 NW18G29   29.70F
ELY            LGT RAIN  48  46  93 W14G24    29.62F
HIBBING        CLOUDY    48  44  86 NW14G21   29.73S
EVELETH        RAIN      50  47  88 W16G25    29.70F
DULUTH HARBOR  CLOUDY    55  46  71 W16G26    29.72F
TWO HARBORS    CLOUDY    54  48  82 W14G20    29.64F
SILVER BAY     DRIZZLE   50  48  93 SW6       29.61S
GRAND MARAIS     N/A     52  46  80 W6        29.52F
G MARAIS ARPRT CLOUDY    46  41  81 W9G22     29.53S
$$
MNZ029>031-032-039>041-046>048-054>057-064-270500-
   West Central Minnesota

CITY           SKY/WX    TMP DP  RH WIND       PRES   REMARKS
FERGUS FALLS   CLEAR     45  34  65 NW8       29.96S
MORRIS         CLEAR     50  36  57 W10       29.94F
ALEXANDRIA     CLEAR     51  33  50 W13       29.93S
ELBOW LAKE     FAIR      46  35  63 NW7       29.94F
GLENWOOD       CLEAR     48  34  57 W8        29.93S
BENSON         CLEAR     48  34  57 NW8       29.94F
ORTONVILLE     CLEAR     54  37  54 W12       29.97F
MADISON          N/A     50  39  66 W8        29.98F
WILLMAR        FAIR      50  37  62 W7        29.95F
$$
MNZ033>034-036-042>043-049>051-058-059-270500-
   Central Minnesota

CITY           SKY/WX    TMP DP  RH WIND       PRES   REMARKS
ST CLOUD       CLEAR     52  39  61 W13       29.87F
SAUK CENTRE    FAIR      49  34  56 W9        29.91S
PAYNESVILLE    CLEAR     47  35  63 W9        29.92S
AITKIN         CLEAR     54  37  54 NW7       29.80F
PINE RIVER     CLEAR     52  43  71 W12G20    29.88F
BRAINERD       CLEAR     53  41  63 NW14G23   29.86F
STAPLES        CLEAR     46  39  76 W9        29.89R
LONG PRAIRIE   FAIR      50  36  57 W9        29.90S
LITTLE FALLS   CLEAR     48  37  66 W6        29.87F
LITCHFIELD     CLEAR     55  37  50 W7        29.92S
BUFFALO        CLEAR     53  37  55 W8        29.89F
MAPLE LAKE     CLEAR     54  38  55 W7        29.90S
HUTCHINSON     CLEAR     48  37  65 W7        29.94S
$$
MNZ037-044-045-052-053-270500-
   East Central Minnesota

CITY           SKY/WX    TMP DP  RH WIND       PRES   REMARKS
PRINCETON      CLEAR     52  41  66 W7        29.85F
MORA           PTCLDY    54  39  58 NW10G23   29.84S
CAMBRIDGE      PTCLDY    57  43  58 W10G16    29.82F
MOOSE LAKE     CLOUDY    54  41  62 NW14G24   29.75F
HINCKLEY       FAIR      55  41  58 W10G18    29.80S
CLOQUET        CLOUDY    54  41  62 W12G24    29.73F
MCGREGOR       CLOUDY    54  41  62 W16       29.79F
$$
MNZ071>073-080-081-089-090-097-098-270500-
   Southwest Minnesota

CITY           SKY/WX    TMP DP  RH WIND       PRES   REMARKS
MONTEVIDEO     CLEAR     52  36  54 NW6       29.98F
GRANITE FALLS  CLEAR     51  40  64 W10       29.98F
CANBY          CLEAR     54  37  52 NW12      30.01S
REDWOOD FALLS  CLEAR     53  36  52 W13       29.96S
OLIVIA         CLEAR     50  36  57 W9        29.94F
PIPESTONE      CLEAR     50  34  53 NW6       30.03S
WINDOM         CLEAR     50  36  57 W7        30.00S
WORTHINGTON    CLEAR     47  36  65 W8        30.02F
JACKSON        CLEAR     52  32  46 W9        30.00S
TRACY          CLEAR     53  38  56 W6        30.00S
SLAYTON        CLEAR     48  36  61 W6        30.02F
$$
MNZ065>067-074>077-082>085-091>093-270500-
   South Central Minnesota

CITY           SKY/WX    TMP DP  RH WIND       PRES   REMARKS
NEW ULM        CLEAR     52  36  54 W12       29.95
ST JAMES       CLEAR     54  37  54 CALM      29.98S
FAIRMONT       CLEAR     54  36  50 W10       29.98S
GLENCOE        CLEAR     53  38  58 W7        29.91S
FARIBAULT      CLEAR     55  36  47 W8        29.91F
OWATONNA       CLEAR     54  34  47 W10       29.92S
WASECA         CLEAR     50  37  62 W7        29.94S
ALBERT LEA     CLEAR     55  36  47 W8        29.94F
$$
MNZ078>079-086>088-094>096-270500-
   Southeast Minnesota

CITY           SKY/WX    TMP DP  RH WIND       PRES   REMARKS
ROCHESTER      CLEAR     53  37  54 W13       29.90F
RED WING       CLEAR     52  37  58 NW7       29.85S
DODGE CENTER   PTCLDY    50  37  62 W9        29.90F
WINONA         CLEAR     59  36  41 W9G20     29.86S
AUSTIN         CLEAR     54  36  50 W9        29.92F
PRESTON        CLEAR     51  36  55 W12       29.90F
$$
ABBREVIATIONS USED IN REMARKS
   TC - TEMPERATURES IN CELSIUS
  WCI - WIND CHILL INDEX
   HX - HEAT INDEX
  VSB - VISIBILITY
$$




USA.gov is the U.S. government's official web portal to all federal, state and local government web resources and services.